TimePST,TemperatureF,Dew PointF,Humidity,Sea Level PressureIn,VisibilityMPH,Wind Direction,Wind SpeedMPH,Gust SpeedMPH,PrecipitationIn,Events,Conditions,WindDirDegrees,DateUTC
12:11 AM,33.8,30.2,87,29.67,10.0,Calm,Calm,-,0.00,Rain,Light Rain,0,2012-12-22 08:11:00
12:21 AM,33.8,30.2,87,29.65,10.0,Calm,Calm,-,0.00,,Overcast,0,2012-12-22 08:21:00
12:53 AM,32.0,30.0,92,29.70,10.0,Calm,Calm,-,0.00,Rain,Light Rain,0,2012-12-22 08:53:00
1:13 AM,33.8,30.2,87,29.63,10.0,South,4.6,-,0.00,,Overcast,180,2012-12-22 09:13:00
1:36 AM,35.6,30.2,81,29.61,10.0,South,3.5,-,0.00,,Overcast,170,2012-12-22 09:36:00
1:53 AM,34.0,32.0,92,29.68,10.0,Calm,Calm,-,0.00,,Overcast,0,2012-12-22 09:53:00
2:53 AM,34.0,32.0,92,29.68,10.0,Calm,Calm,-,0.00,Rain,Light Rain,0,2012-12-22 10:53:00
3:03 AM,33.8,30.2,87,29.60,10.0,Calm,Calm,-,0.00,Rain,Light Rain,0,2012-12-22 11:03:00
3:12 AM,33.8,32.0,93,29.60,10.0,Calm,Calm,-,0.00,Rain,Light Rain,0,2012-12-22 11:12:00
3:19 AM,33.8,30.2,87,29.59,10.0,South,3.5,-,0.01,Rain,Light Rain,170,2012-12-22 11:19:00
3:53 AM,36.0,33.1,89,29.63,10.0,SSW,4.6,-,0.02,Rain,Light Rain,210,2012-12-22 11:53:00
4:28 AM,35.6,32.0,87,29.57,10.0,West,6.9,-,0.00,,Overcast,260,2012-12-22 12:28:00
4:53 AM,34.0,32.0,92,29.67,10.0,SSW,6.9,-,0.00,,Overcast,200,2012-12-22 12:53:00
5:53 AM,35.1,33.1,92,29.68,10.0,Calm,Calm,-,0.01,Rain,Light Rain,0,2012-12-22 13:53:00
6:18 AM,33.8,33.8,100,29.63,10.0,Calm,Calm,-,0.00,Rain,Light Rain,0,2012-12-22 14:18:00
6:28 AM,33.8,32.0,93,29.63,10.0,Calm,Calm,-,0.01,Rain,Light Rain,0,2012-12-22 14:28:00
6:53 AM,34.0,32.0,92,29.70,10.0,Calm,Calm,-,0.01,,Mostly Cloudy,0,2012-12-22 14:53:00
7:53 AM,34.0,32.0,92,29.72,10.0,South,4.6,-,0.00,,Overcast,190,2012-12-22 15:53:00
8:53 AM,35.1,30.0,82,29.75,10.0,SSW,11.5,-,N/A,,Scattered Clouds,200,2012-12-22 16:53:00
9:53 AM,36.0,30.0,79,29.81,10.0,WSW,10.4,-,N/A,,Overcast,240,2012-12-22 17:53:00
10:53 AM,37.0,32.0,82,29.82,10.0,South,3.5,-,0.00,,Overcast,170,2012-12-22 18:53:00
11:53 AM,39.9,32.0,73,29.81,10.0,Calm,Calm,-,N/A,,Overcast,0,2012-12-22 19:53:00
12:53 PM,41.0,28.9,62,29.80,10.0,WSW,8.1,-,0.00,,Overcast,240,2012-12-22 20:53:00
1:53 PM,43.0,28.0,56,29.78,10.0,SSE,13.8,-,N/A,,Mostly Cloudy,160,2012-12-22 21:53:00
2:53 PM,39.9,28.0,63,29.81,10.0,WSW,17.3,-,N/A,,Overcast,240,2012-12-22 22:53:00
3:53 PM,36.0,30.9,82,29.84,10.0,SW,6.9,-,N/A,,Overcast,230,2012-12-22 23:53:00
4:09 PM,35.6,30.2,81,29.78,10.0,SSW,3.5,-,N/A,,Mostly Cloudy,200,2012-12-23 00:09:00
4:18 PM,37.4,30.2,75,29.77,10.0,SSE,9.2,-,N/A,,Scattered Clouds,160,2012-12-23 00:18:00
4:53 PM,36.0,30.0,79,29.85,10.0,SSE,8.1,-,N/A,,Partly Cloudy,160,2012-12-23 00:53:00
5:53 PM,36.0,30.0,79,29.86,10.0,South,6.9,-,N/A,,Overcast,190,2012-12-23 01:53:00
6:53 PM,36.0,30.0,79,29.89,10.0,West,4.6,-,N/A,,Overcast,270,2012-12-23 02:53:00
7:53 PM,34.0,28.9,82,29.92,10.0,Calm,Calm,-,N/A,,Mostly Cloudy,0,2012-12-23 03:53:00
8:53 PM,32.0,28.0,85,29.93,10.0,Calm,Calm,-,N/A,,Clear,0,2012-12-23 04:53:00
9:53 PM,30.9,28.9,92,29.95,10.0,NNW,4.6,-,N/A,,Partly Cloudy,330,2012-12-23 05:53:00
10:53 PM,33.1,28.9,85,29.95,10.0,Calm,Calm,-,N/A,,Overcast,0,2012-12-23 06:53:00
11:53 PM,33.1,28.9,85,29.94,10.0,NNW,3.5,-,N/A,,Overcast,330,2012-12-23 07:53:00